Hyannis, MA

11:46 AM EST on December 03, 2016 (GMT -0500)
Barnstable Municipal-Boardman-Polando Field

Weather History for KHYA - June, 2013

Change the Weather History Date:

Sunday, June 30, 2013

  Actual Average Record
Temperature  
Mean Temperature 72 °F -  
Max Temperature 77 °F 76 °F 88 °F (1955)
Min Temperature 68 °F 60 °F 48 °F (1956)
Cooling Degree Days 6    
Growing Degree Days 22 (Base 50)    
Moisture  
Dew Point 69 °F    
Average Humidity 94    
Maximum Humidity 100    
Minimum Humidity 84    
Precipitation  
Precipitation 0.04 in - - ()
Sea Level Pressure  
Sea Level Pressure 29.86 in    
Wind  
Wind Speed 9 mph (SSW)    
Max Wind Speed 14 mph    
Max Gust Speed 20 mph    
Visibility 4 miles    
Events Rain    
Averages and records for this station are not official NWS values.
T = Trace of Precipitation, MM = Missing Value Source: NWS Daily Summary

Daily Weather History Graph

Daily Weather History Graph

Search for Another Location

Airport or City:

Trip Planner

Search our weather history database for the weather conditions in past years. The results will help you decide how hot, cold, wet, or windy it might be!

Date:

Astronomy

Jun. 30, 2013 Rise Set
Actual Time 5:10 AM EDT 8:19 PM EDT
Civil Twilight 4:36 AM EDT 8:53 PM EDT
Nautical Twilight 3:52 AM EDT 9:37 PM EDT
Astronomical Twilight 3:00 AM EDT 10:29 PM EDT
Moon 12:11 AM EDT (6/30) 1:27 PM EDT (6/30)
Length of Visible Light 16h 17m
Length of Day
15h 09m
Last Quarter, 45% of the Moon is Illuminated
Jun 30
Last Quarter
Jul 8
New
Jul 15
First Quarter
Jul 22
Full
Jul 29
Last Quarter

Hourly Weather History & Observations

Time (EDT) Temp. Dew Point Humidity Pressure Visibility Wind Dir Wind Speed Gust Speed Precip Events Conditions
12:14 AM 69.8 °F 68.0 °F 94% 29.76 in 3.0 mi SSW 9.2 mph 17.3 mph N/A   Overcast
12:35 AM 69.8 °F 68.0 °F 94% 29.76 in 2.5 mi SSW 8.1 mph - N/A   Overcast
12:56 AM 69.1 °F 68.0 °F 96% 29.77 in 2.5 mi SSW 10.4 mph - N/A   Overcast
1:36 AM 68.0 °F 66.2 °F 94% 29.77 in 1.8 mi South 9.2 mph - N/A   Overcast
1:52 AM 68.0 °F 66.2 °F 94% 29.77 in 2.0 mi SSW 9.2 mph - N/A   Overcast
1:56 AM 68.0 °F 66.9 °F 96% 29.78 in 2.0 mi SSW 6.9 mph - N/A   Overcast
2:18 AM 68.0 °F 66.2 °F 94% 29.77 in 4.0 mi SSW 8.1 mph - N/A   Overcast
2:56 AM 69.1 °F 66.9 °F 93% 29.77 in 5.0 mi SW 10.4 mph - N/A   Overcast
3:56 AM 70.0 °F 68.0 °F 93% 29.77 in 5.0 mi SSW 10.4 mph - N/A   Overcast
4:56 AM 69.1 °F 68.0 °F 96% 29.79 in 7.0 mi SSW 11.5 mph - N/A   Overcast
5:31 AM 69.8 °F 69.8 °F 100% 29.80 in 1.8 mi SSW 10.4 mph - N/A   Overcast
5:49 AM 69.8 °F 69.8 °F 100% 29.80 in 3.0 mi SSW 9.2 mph - N/A   Overcast
5:56 AM 69.1 °F 69.1 °F 100% 29.81 in 4.0 mi SSW 9.2 mph - N/A   Overcast
6:44 AM 71.6 °F 69.8 °F 94% 29.82 in 7.0 mi SSW 10.4 mph - N/A   Overcast
6:56 AM 71.1 °F 69.1 °F 93% 29.83 in 5.0 mi SSW 9.2 mph 16.1 mph N/A   Overcast
7:31 AM 69.8 °F 69.8 °F 100% 29.84 in 2.5 mi SSW 11.5 mph - N/A   Overcast
7:56 AM 70.0 °F 69.1 °F 97% 29.85 in 2.0 mi SSW 9.2 mph - N/A   Overcast
8:12 AM 69.8 °F 69.8 °F 100% 29.85 in 3.0 mi SSW 9.2 mph - N/A   Overcast
8:48 AM 69.8 °F 69.8 °F 100% 29.86 in 2.0 mi South 8.1 mph - N/A   Overcast
8:56 AM 70.0 °F 69.1 °F 97% 29.86 in 1.2 mi SSW 9.2 mph - N/A   Overcast
9:36 AM 69.8 °F 69.8 °F 100% 29.86 in 3.0 mi SSW 10.4 mph - N/A   Overcast
9:56 AM 71.1 °F 69.1 °F 93% 29.86 in 3.0 mi SSW 10.4 mph - N/A   Overcast
10:02 AM 69.8 °F 69.8 °F 100% 29.86 in 1.8 mi SSW 13.8 mph - N/A   Overcast
10:19 AM 71.6 °F 69.8 °F 94% 29.86 in 2.0 mi SSW 9.2 mph 17.3 mph N/A   Overcast
10:32 AM 71.6 °F 69.8 °F 94% 29.87 in 4.0 mi SSW 9.2 mph - N/A   Overcast
10:56 AM 71.1 °F 69.1 °F 93% 29.88 in 2.0 mi SSW 9.2 mph - N/A   Overcast
11:56 AM 73.0 °F 69.1 °F 87% 29.88 in 8.0 mi SSW 11.5 mph 18.4 mph N/A   Overcast
12:17 PM 71.6 °F 69.8 °F 94% 29.88 in 2.0 mi SW 11.5 mph - N/A   Overcast
12:56 PM 71.1 °F 69.1 °F 93% 29.88 in 2.0 mi SW 11.5 mph 19.6 mph N/A   Overcast
1:28 PM 73.4 °F 69.8 °F 88% 29.88 in 6.0 mi SSW 10.4 mph - N/A   Overcast
1:56 PM 73.9 °F 69.1 °F 85% 29.89 in 10.0 mi SW 11.5 mph - N/A   Mostly Cloudy
2:56 PM 75.0 °F 70.0 °F 84% 29.90 in 10.0 mi SSW 6.9 mph - N/A   Clear
3:56 PM 72.0 °F 66.9 °F 84% 29.92 in 10.0 mi SSW 11.5 mph - N/A   Partly Cloudy
4:56 PM 70.0 °F 66.9 °F 90% 29.91 in 10.0 mi SSW 6.9 mph - 0.00 in Rain Light Rain
5:56 PM 70.0 °F 66.9 °F 90% 29.93 in 10.0 mi South 8.1 mph - 0.00 in   Overcast
6:56 PM 70.0 °F 68.0 °F 93% 29.94 in 5.0 mi SSW 10.4 mph 18.4 mph N/A   Overcast
7:56 PM 70.0 °F 68.0 °F 93% 29.95 in 5.0 mi SSW 8.1 mph - N/A   Overcast
8:07 PM 69.8 °F 68.0 °F 94% 29.95 in 2.5 mi South 6.9 mph - 0.01 in Rain Light Rain
8:56 PM 70.0 °F 69.1 °F 97% 29.96 in 3.0 mi SSW 9.2 mph - 0.04 in   Overcast
9:56 PM 70.0 °F 68.0 °F 93% 29.97 in 9.0 mi SSW 8.1 mph - N/A   Overcast
10:56 PM 70.0 °F 68.0 °F 93% 29.98 in 8.0 mi SSW 9.2 mph 17.3 mph N/A   Overcast
11:56 PM 70.0 °F 69.1 °F 97% 29.99 in 8.0 mi SSW 11.5 mph - N/A   Overcast